GW6231 Weather Reports


time (UTC)temp
C
wind
direction
speed
KPH
gust
KPH
rain 1hr
cm
rain 24hr
cm
rain mn
cm
humidity
%
barometer
mb
20260906155458 40 10 6.4 11.3 0.00 0.00 0.00 48 1006.1
20260906154958 39 271 1.6 8.0 0.00 0.00 0.00 54 1006.1
20260906154458 38 284 4.8 8.0 0.00 0.00 0.00 55 1006.1
20260906153958 37 270 4.8 9.7 0.00 0.00 0.00 57 1006.2
20260906153458 37 339 3.2 12.9 0.00 0.00 0.00 54 1006.2
20260906152958 37 356 4.8 12.9 0.00 0.00 0.00 52 1006.2
20260906152459 42 270 3.2 8.0 0.00 0.00 0.00 57 1006.2
20260906151958 37 13 1.6 11.3 0.00 0.00 0.00 56 1006.2
20260906151458 36 34 3.2 12.9 0.00 0.00 0.00 55 1006.2
20260906150959 42 19 4.8 14.5 0.00 0.00 0.00 64 1006.3
20260906150458 35 27 1.6 14.5 0.00 0.00 0.00 58 1006.4
20260906145958 35 3 6.4 11.3 0.00 0.00 0.00 58 1006.2
20260906145459 39 319 8.0 11.3 0.00 0.00 0.00 58 1006.1
20260906144958 35 338 6.4 11.3 0.00 0.00 0.00 56 1006.3
20260906144458 35 360 3.2 11.3 0.00 0.00 0.00 58 1006.1
20260906143958 34 333 1.6 6.4 0.00 0.00 0.00 68 1006.2
20260906143458 34 246 6.4 6.4 0.00 0.00 0.00 71 1006.2
20260906142958 33 224 3.2 6.4 0.00 0.00 0.00 70 1006.2
20260906142458 33 238 6.4 6.4 0.00 0.00 0.00 71 1006.2
20260906141958 33 276 3.2 6.4 0.00 0.00 0.00 74 1006.3
20260906141458 33 318 4.8 6.4 0.00 0.00 0.00 74 1006.3
20260906140958 33 228 4.8 6.4 0.00 0.00 0.00 75 1006.3
20260906140458 32 257 4.8 6.4 0.00 0.00 0.00 74 1006.3
20260906135958 32 237 4.8 6.4 0.00 0.00 0.00 76 1006.3
20260906135459 33 303 4.8 6.4 0.00 0.00 0.00 80 1006.3
20260906134958 32 267 3.2 6.4 0.00 0.00 0.00 80 1006.3
20260906134458 31 277 3.2 6.4 0.00 0.00 0.00 82 1006.4
20260906133958 31 262 4.8 6.4 0.00 0.00 0.00 85 1006.4
20260906133458 30 257 4.8 6.4 0.00 0.00 0.00 85 1006.4
20260906132959 31 269 4.8 8.0 0.00 0.00 0.00 86 1006.3
20260906132458 32 266 6.4 8.0 0.00 0.00 0.00 86 1006.2
20260906131958 30 261 4.8 6.4 0.00 0.00 0.00 86 1006.1
20260906131459 31 254 3.2 4.8 0.00 0.00 0.00 85 1006.2
20260906130958 32 320 1.6 3.2 0.00 0.00 0.00 87 1006.2
20260906130458 30 233 1.6 3.2 0.00 0.00 0.00 86 1006.1
20260906125958 30 157 1.6 3.2 0.00 0.00 0.00 87 1006.1
20260906125458 38 155 3.2 3.2 0.00 0.00 0.00 97 1006.2
20260906124958 30 157 3.2 3.2 0.00 0.00 0.00 92 1006.1
20260906124458 32 166 1.6 3.2 0.00 0.00 0.00 96 1006.0
20260906123959 30 163 1.6 3.2 0.00 0.00 0.00 97 1006.0
20260906123458 30 192 1.6 4.8 0.00 0.00 0.00 98 1006.0
20260906122958 30 181 1.6 4.8 0.00 0.00 0.00 98 1005.9
20260906122458 29 160 3.2 4.8 0.00 0.00 0.00 99 1005.8
20260906121958 29 151 3.2 4.8 0.00 0.00 0.00 100 1005.7
20260906121459 29 142 3.2 3.2 0.00 0.00 0.00 100 1005.7
20260906120958 29 86 1.6 1.6 0.00 0.00 0.00 100 1005.6
20260906120458 28 13 0.0 1.6 0.00 0.00 0.00 100 1005.5
20260906115958 28 70 1.6 1.6 0.00 0.00 0.00 100 1005.5
20260906115458 28 148 0.0 3.2 0.00 0.00 0.00 100 1005.4
20260906114958 28 132 1.6 3.2 0.00 0.00 0.00 100 1005.3
20260906114458 28 230 1.6 3.2 0.00 0.00 0.00 100 1005.3
20260906113958 28 268 1.6 3.2 0.00 0.00 0.00 100 1005.2
20260906113458 28 308 3.2 6.4 0.00 0.00 0.00 100 1005.2
20260906112958 28 278 1.6 6.4 0.00 0.00 0.00 100 1005.1
20260906112458 28 181 4.8 6.4 0.00 0.00 0.00 100 1005.1
20260906111958 28 181 6.4 6.4 0.00 0.00 0.00 100 1005.0
20260906111458 28 162 3.2 3.2 0.00 0.00 0.00 100 1005.0
20260906110958 28 188 1.6 4.8 0.00 0.00 0.00 100 1005.0
20260906110458 28 192 3.2 6.4 0.00 0.00 0.00 100 1005.0
20260906105959 28 226 4.8 6.4 0.00 0.00 0.00 100 1004.8
20260906105458 28 239 3.2 4.8 0.00 0.00 0.00 99 1004.7
20260906104958 28 270 3.2 4.8 0.00 0.00 0.00 99 1004.7
20260906104458 28 262 4.8 4.8 0.00 0.00 0.00 99 1004.7
20260906103958 28 242 3.2 4.8 0.00 0.00 0.00 99 1005.0
20260906103458 28 250 3.2 3.2 0.00 0.00 0.00 100 1004.9
20260906102958 28 301 3.2 4.8 0.00 0.00 0.00 100 1004.6
20260906102458 28 341 3.2 4.8 0.00 0.00 0.00 99 1004.8
20260906101958 28 358 3.2 4.8 0.00 0.00 0.00 98 1004.7
20260906101458 28 10 3.2 3.2 0.00 0.00 0.00 99 1004.7
20260906100958 28 43 1.6 3.2 0.00 0.00 0.00 99 1004.8
20260906100458 28 160 0.0 6.4 0.00 0.00 0.00 98 1004.7
20260906095958 28 142 3.2 6.4 0.00 0.00 0.00 98 1004.8
20260906095459 28 119 4.8 4.8 0.00 0.00 0.00 99 1004.7
20260906094958 28 76 3.2 4.8 0.00 0.00 0.00 99 1004.7
20260906094458 28 60 1.6 6.4 0.00 0.00 0.00 99 1004.7
20260906093958 28 23 4.8 6.4 0.00 0.00 0.00 98 1004.7
20260906093458 28 10 1.6 3.2 0.00 0.00 0.00 96 1004.7
20260906092959 28 116 3.2 4.8 0.00 0.00 0.00 97 1004.7
20260906092458 29 72 3.2 4.8 0.00 0.00 0.00 98 1004.6
20260906091958 28 60 3.2 4.8 0.00 0.00 0.00 98 1004.6
20260906091458 28 52 1.6 4.8 0.00 0.00 0.00 97 1004.6
20260906090958 29 52 1.6 4.8 0.00 0.00 0.00 96 1004.6
20260906090459 29 125 3.2 6.4 0.00 0.00 0.00 95 1004.5
20260906085958 29 129 3.2 9.7 0.00 0.00 0.00 95 1004.4
20260906085458 30 149 6.4 9.7 0.00 0.00 0.00 96 1004.4
20260906084958 29 174 6.4 8.0 0.00 0.00 0.00 95 1004.2
20260906084458 29 162 4.8 8.0 0.00 0.00 0.00 95 1004.1
20260906083958 30 177 8.0 8.0 0.00 0.00 0.00 100 1004.1
20260906083458 30 115 3.2 3.2 0.00 0.00 0.00 95 1004.2
20260906082958 29 91 1.6 1.6 0.00 0.00 0.00 96 1004.1
20260906082458 29 128 1.6 1.6 0.00 0.00 0.00 95 1004.1
20260906081958 30 128 1.6 3.2 0.00 0.00 0.00 94 1004.0
20260906081458 30 269 1.6 3.2 0.00 0.00 0.00 94 1004.0
20260906080959 30 267 3.2 3.2 0.00 0.00 0.00 94 1003.9
20260906080459 30 272 3.2 3.2 0.00 0.00 0.00 94 1003.8
20260906075958 30 263 3.2 3.2 0.00 0.00 0.00 94 1003.8
20260906075458 30 234 3.2 3.2 0.00 0.00 0.00 94 1003.8
20260906074958 32 218 3.2 3.2 0.00 0.00 0.00 100 1003.9
20260906074459 30 246 3.2 3.2 0.00 0.00 0.00 94 1003.9
20260906073959 29 204 3.2 4.8 0.00 0.00 0.00 95 1003.9
20260906073458 29 195 3.2 4.8 0.00 0.00 0.00 96 1004.1
20260906072958 29 169 3.2 4.8 0.00 0.00 0.00 95 1004.1
20260906072458 29 44 0.0 4.8 0.00 0.00 0.00 95 1004.1
20260906071958 29 324 3.2 4.8 0.00 0.00 0.00 94 1004.1
20260906071458 29 330 4.8 4.8 0.00 0.00 0.00 94 1004.1
20260906070958 29 319 3.2 3.2 0.00 0.00 0.00 91 1004.1
20260906070458 29 298 1.6 3.2 0.00 0.00 0.00 91 1004.2
20260906065959 29 240 1.6 6.4 0.00 0.00 0.00 92 1004.2
20260906065459 29 213 3.2 6.4 0.00 0.00 0.00 92 1004.3
20260906064958 29 224 3.2 3.2 0.00 0.00 0.00 92 1004.3
20260906064458 30 183 1.6 3.2 0.00 0.00 0.00 92 1004.3
20260906063959 30 110 3.2 3.2 0.00 0.00 0.00 92 1004.3
20260906063458 30 4 0.0 4.8 0.00 0.00 0.00 90 1004.3
20260906062958 30 332 3.2 4.8 0.00 0.00 0.00 90 1004.4
20260906062458 30 313 3.2 4.8 0.00 0.00 0.00 91 1004.4
20260906061958 30 319 3.2 4.8 0.00 0.00 0.00 92 1004.5
20260906061458 30 333 1.6 3.2 0.00 0.00 0.00 91 1004.6
20260906060958 30 246 0.0 1.6 0.00 0.00 0.00 90 1004.6
20260906060459 30 257 1.6 1.6 0.00 0.00 0.00 90 1004.5
20260906055958 30 216 1.6 3.2 0.00 0.00 0.00 90 1004.5
20260906055459 30 28 1.6 3.2 0.00 0.00 0.00 90 1004.7
20260906054958 30 28 0.0 6.4 0.00 0.00 0.00 90 1004.6
20260906054458 30 169 3.2 11.3 0.00 0.00 0.00 92 1004.6
20260906053959 40 165 6.4 17.7 0.00 0.00 0.00 93 1004.6
20260906053458 30 169 9.7 17.7 0.00 0.00 0.00 94 1004.6
20260906052958 30 9 1.6 3.2 0.00 0.00 0.00 94 1004.4
20260906052459 30 45 1.6 1.6 0.00 0.00 0.00 100 1004.4
20260906051958 30 64 1.6 1.6 0.00 0.00 0.00 94 1004.4
20260906051458 30 56 1.6 3.2 0.00 0.00 0.00 92 1004.3
20260906050958 30 20 1.6 3.2 0.00 0.00 0.00 91 1004.3
20260906050458 30 24 1.6 3.2 0.00 0.00 0.00 91 1004.3
20260906045959 30 54 1.6 3.2 0.00 0.00 0.00 90 1004.2
20260906045458 30 31 1.6 3.2 0.00 0.00 0.00 91 1004.3
20260906044958 30 23 1.6 3.2 0.00 0.00 0.00 99 1004.3
20260906044458 30 27 1.6 1.6 0.00 0.00 0.00 90 1004.3
20260906043958 30 92 1.6 3.2 0.00 0.00 0.00 90 1004.2
20260906043458 30 104 1.6 3.2 0.00 0.00 0.00 89 1004.2
20260906042958 31 136 3.2 4.8 0.00 0.00 0.00 89 1004.1
20260906042458 30 148 3.2 4.8 0.00 0.00 0.00 89 1004.0
20260906041959 31 155 4.8 4.8 0.00 0.00 0.00 91 1004.0
20260906041459 41 147 4.8 4.8 0.00 0.00 0.00 88 1003.9
20260906040958 30 178 3.2 3.2 0.00 0.00 0.00 89 1003.9
20260906040459 30 220 3.2 3.2 0.00 0.00 0.00 89 1003.9
20260906035958 30 245 3.2 3.2 0.00 0.00 0.00 89 1004.0
20260906035458 30 252 3.2 3.2 0.00 0.00 0.00 90 1004.0
20260906034958 30 256 1.6 1.6 0.00 0.00 0.00 89 1004.0
20260906034458 30 309 1.6 1.6 0.00 0.00 0.00 88 1004.0
20260906033958 40 341 0.0 1.6 0.00 0.00 0.00 88 1004.0
20260906033458 30 1 0.0 1.6 0.00 0.00 0.00 88 1004.2
20260906032959 30 19 1.6 3.2 0.00 0.00 0.00 88 1004.3
20260906032458 31 14 1.6 3.2 0.00 0.00 0.00 87 1004.3
20260906031958 30 346 1.6 3.2 0.00 0.00 0.00 86 1004.4
20260906031459 30 3 1.6 3.2 0.00 0.00 0.00 87 1004.4
20260906030959 30 17 1.6 1.6 0.00 0.00 0.00 89 1004.4
20260906030458 30 84 1.6 1.6 0.00 0.00 0.00 89 1004.4
20260906025958 30 148 0.0 1.6 0.00 0.00 0.00 88 1004.4
20260906025458 30 75 0.0 1.6 0.00 0.00 0.00 88 1004.4
20260906024958 30 106 0.0 1.6 0.00 0.00 0.00 87 1004.5
20260906024458 31 162 1.6 1.6 0.00 0.00 0.00 87 1004.4
20260906023958 31 167 1.6 1.6 0.00 0.00 0.00 87 1004.3
20260906023458 31 131 1.6 1.6 0.00 0.00 0.00 86 1004.4
20260906022959 31 348 0.0 1.6 0.00 0.00 0.00 86 1004.4
20260906022458 31 234 1.6 1.6 0.00 0.00 0.00 84 1004.4
20260906021958 31 24 0.0 1.6 0.00 0.00 0.00 84 1004.4
20260906021459 31 193 1.6 1.6 0.00 0.00 0.00 84 1004.4
20260906020958 32 129 1.6 3.2 0.00 0.00 0.00 85 1004.3
20260906020458 32 234 1.6 3.2 0.00 0.00 0.00 83 1004.2
20260906015958 32 280 1.6 1.6 0.00 0.00 0.00 85 1004.2
20260906015459 37 270 1.6 3.2 0.00 0.00 0.00 80 1004.0
20260906014958 31 276 1.6 4.8 0.00 0.00 0.00 81 1004.0
20260906014458 31 320 3.2 4.8 0.00 0.00 0.00 81 1003.9
20260906013958 31 341 3.2 3.2 0.00 0.00 0.00 82 1003.9
20260906013458 31 324 1.6 1.6 0.00 0.00 0.00 76 1003.8
20260906012958 31 343 1.6 1.6 0.00 0.00 0.00 77 1003.8
20260906012458 31 95 0.0 1.6 0.00 0.00 0.00 75 1003.8
20260906011958 32 224 0.0 1.6 0.00 0.00 0.00 74 1003.7
20260906011458 32 201 1.6 3.2 0.00 0.00 0.00 73 1003.7
20260906010958 32 198 1.6 4.8 0.00 0.00 0.00 74 1003.6
20260906010458 32 184 3.2 4.8 0.00 0.00 0.00 72 1003.4
20260906005958 32 171 3.2 4.8 0.00 0.00 0.00 71 1003.4
20260906005458 32 170 4.8 4.8 0.00 0.00 0.00 71 1003.2
20260906004958 34 175 3.2 3.2 0.00 0.00 0.00 69 1003.3
20260906004458 33 189 3.2 3.2 0.00 0.00 0.00 70 1003.3
20260906003958 33 213 3.2 3.2 0.00 0.00 0.00 73 1003.3
20260906003458 34 309 1.6 4.8 0.00 0.00 0.00 67 1003.3
20260906002958 34 330 1.6 4.8 0.00 0.00 0.00 66 1003.6
20260906002459 35 140 1.6 1.6 0.00 0.00 0.00 61 1003.3
20260906001958 35 181 1.6 3.2 0.00 0.00 0.00 59 1003.3
20260906001458 35 105 1.6 3.2 0.00 0.00 0.00 59 1003.3
20260906000958 35 272 1.6 4.8 0.00 0.00 0.00 59 1003.3
20260906000458 36 180 3.2 4.8 0.00 0.00 0.00 58 1003.3
20260905235958 36 169 3.2 4.8 0.00 0.00 0.00 56 1003.4
20260905235458 36 159 3.2 4.8 0.00 0.00 0.00 52 1003.3
20260905234958 36 163 3.2 6.4 0.00 0.00 0.00 51 1003.4
20260905234458 36 124 3.2 6.4 0.00 0.00 0.00 52 1003.5
20260905233958 36 135 6.4 6.4 0.00 0.00 0.00 50 1003.4
20260905233458 36 140 4.8 6.4 0.00 0.00 0.00 50 1003.4
20260905232958 36 160 3.2 6.4 0.00 0.00 0.00 50 1003.4
20260905232458 36 137 3.2 6.4 0.00 0.00 0.00 49 1003.4
20260905231958 36 155 4.8 8.0 0.00 0.00 0.00 49 1003.4
20260905231459 36 142 6.4 9.7 0.00 0.00 0.00 50 1003.4
20260905230958 36 133 4.8 9.7 0.00 0.00 0.00 50 1003.4
20260905230458 36 101 8.0 9.7 0.00 0.00 0.00 48 1003.3
20260905225958 36 153 6.4 9.7 0.00 0.00 0.00 48 1003.3
20260905225458 36 145 6.4 12.9 0.00 0.00 0.00 47 1003.3
20260905224958 36 181 6.4 14.5 0.00 0.00 0.00 47 1003.3
20260905224458 36 177 9.7 14.5 0.00 0.00 0.00 48 1003.3
20260905223958 36 180 11.3 12.9 0.00 0.00 0.00 48 1003.3
20260905223458 36 152 11.3 12.9 0.00 0.00 0.00 48 1003.3
20260905222958 35 140 6.4 11.3 0.00 0.00 0.00 48 1003.2
20260905222458 35 119 4.8 11.3 0.00 0.00 0.00 50 1003.3
20260905221958 34 159 8.0 9.7 0.00 0.00 0.00 51 1003.5
20260905221458 33 138 4.8 9.7 0.00 0.00 0.00 56 1003.6
20260905220958 33 120 4.8 9.7 0.00 0.00 0.00 58 1003.7
20260905220458 33 188 9.7 14.5 0.00 0.00 0.00 61 1003.9
20260905215958 32 144 8.0 17.7 0.00 0.00 0.00 61 1003.9
20260905215458 32 156 14.5 27.4 0.00 0.00 0.00 60 1004.0
20260905214958 33 127 8.0 27.4 0.00 0.00 0.00 58 1004.0
20260905214458 33 138 16.1 35.4 0.00 0.00 0.00 54 1004.0
20260905213958 33 126 9.7 35.4 0.00 0.00 0.00 52 1003.9
20260905213458 34 113 19.3 33.8 0.00 0.00 0.00 48 1003.9
20260905212958 35 95 14.5 46.7 0.00 0.00 0.00 47 1004.0
20260905212458 35 128 17.7 46.7 0.00 0.00 0.00 46 1003.9
20260905211958 36 108 22.5 46.7 0.00 0.00 0.00 42 1003.8
20260905211459 38 21 32.2 32.2 0.00 0.00 0.00 39 1003.6
20260905210958 37 37 4.8 12.9 0.00 0.00 0.00 36 1003.4
20260905210458 37 17 1.6 11.3 0.00 0.00 0.00 36 1003.4
20260905205958 37 360 4.8 16.1 0.00 0.00 0.00 38 1003.4
20260905205458 38 27 11.3 16.1 0.00 0.00 0.00 36 1003.4
20260905204958 38 29 11.3 20.9 0.00 0.00 0.00 35 1003.4
20260905204458 39 36 12.9 20.9 0.00 0.00 0.00 34 1003.5
20260905203958 38 62 8.0 11.3 0.00 0.00 0.00 35 1003.5
20260905203459 38 323 3.2 12.9 0.00 0.00 0.00 34 1003.6
20260905202958 40 338 11.3 14.5 0.00 0.00 0.00 35 1003.8
20260905202458 38 27 9.7 14.5 0.00 0.00 0.00 34 1003.9
20260905201958 38 288 9.7 14.5 0.00 0.00 0.00 36 1003.9
20260905201458 38 99 8.0 14.5 0.00 0.00 0.00 34 1004.0
20260905200958 38 14 8.0 17.7 0.00 0.00 0.00 35 1004.1
20260905200458 38 14 11.3 17.7 0.00 0.00 0.00 36 1004.2
20260905195958 38 54 12.9 19.3 0.00 0.00 0.00 35 1004.3
20260905195458 39 30 3.2 19.3 0.00 0.00 0.00 35 1004.5
20260905194958 38 51 9.7 17.7 0.00 0.00 0.00 37 1004.6
20260905194458 38 158 6.4 16.1 0.00 0.00 0.00 34 1004.6
20260905193958 38 78 9.7 16.1 0.00 0.00 0.00 34 1004.8
20260905193458 38 67 4.8 14.5 0.00 0.00 0.00 34 1004.7
20260905192959 38 49 4.8 14.5 0.00 0.00 0.00 34 1004.9
20260905192458 39 80 11.3 12.9 0.00 0.00 0.00 33 1004.9
20260905191958 40 189 3.2 9.7 0.00 0.00 0.00 41 1004.9
20260905191458 39 277 1.6 12.9 0.00 0.00 0.00 36 1005.0
20260905190958 40 327 4.8 12.9 0.00 0.00 0.00 39 1005.0
20260905190458 38 86 12.9 16.1 0.00 0.00 0.00 37 1005.1
20260905185958 38 339 8.0 19.3 0.00 0.00 0.00 37 1005.1
20260905185458 38 346 9.7 19.3 0.00 0.00 0.00 37 1005.2
20260905184958 39 297 8.0 16.1 0.00 0.00 0.00 41 1005.3
20260905184458 38 105 1.6 24.1 0.00 0.00 0.00 39 1005.4
20260905183958 38 359 6.4 24.1 0.00 0.00 0.00 38 1005.5
20260905183458 38 337 6.4 25.7 0.00 0.00 0.00 38 1005.6
20260905182958 38 291 9.7 25.7 0.00 0.00 0.00 38 1005.6
20260905182458 38 1 4.8 17.7 0.00 0.00 0.00 37 1005.7
20260905181958 39 7 8.0 14.5 0.00 0.00 0.00 37 1005.7
20260905181458 38 44 4.8 17.7 0.00 0.00 0.00 36 1005.7
20260905180958 40 66 1.6 17.7 0.00 0.00 0.00 39 1005.8
20260905180458 38 265 11.3 14.5 0.00 0.00 0.00 38 1005.9
20260905175958 38 43 8.0 14.5 0.00 0.00 0.00 40 1006.1
20260905175459 37 43 6.4 14.5 0.00 0.00 0.00 38 1006.1
20260905174958 37 26 6.4 16.1 0.00 0.00 0.00 41 1006.1
20260905174459 37 339 3.2 16.1 0.00 0.00 0.00 41 1006.1
20260905173958 37 299 9.7 14.5 0.00 0.00 0.00 42 1006.2
20260905173458 37 320 4.8 14.5 0.00 0.00 0.00 46 1006.4
20260905172958 36 287 6.4 16.1 0.00 0.00 0.00 44 1006.1
20260905172458 37 261 6.4 17.7 0.00 0.00 0.00 42 1006.3
20260905171958 37 317 12.9 17.7 0.00 0.00 0.00 39 1006.4
20260905171458 36 275 6.4 12.9 0.00 0.00 0.00 43 1006.4
20260905170958 36 331 11.3 12.9 0.00 0.00 0.00 43 1006.5
20260905170458 36 277 3.2 14.5 0.00 0.00 0.00 47 1006.6
20260905165958 37 278 9.7 16.1 0.00 0.00 0.00 42 1006.6
20260905165459 37 293 12.9 16.1 0.00 0.00 0.00 42 1006.7
20260905164958 37 334 16.1 16.1 0.00 0.00 0.00 44 1006.7
20260905164459 37 271 3.2 11.3 0.00 0.00 0.00 44 1006.7
20260905163958 36 344 4.8 14.5 0.00 0.00 0.00 43 1006.8
20260905163458 36 333 4.8 14.5 0.00 0.00 0.00 43 1006.8
20260905162958 36 356 8.0 19.3 0.00 0.00 0.00 43 1006.9
20260905162459 36 254 6.4 19.3 0.00 0.00 0.00 45 1006.9
20260905161958 44 311 9.7 16.1 0.00 0.00 0.00 57 1007.0
20260905161459 37 34 1.6 16.1 0.00 0.00 0.00 48 1007.0
20260905160958 37 14 11.3 14.5 0.00 0.00 0.00 49 1007.0
20260905160458 43 11 8.0 12.9 0.00 0.00 0.00 53 1007.0
20260905155958 37 291 6.4 12.9 0.00 0.00 0.00 50 1007.0